FW7807 Weather Reports


Display with metric or nautical units.
time (UTC)temp
F
wind
direction
speed
MPH
gust
MPH
rain 1hr
in
rain 24hr
in
rain mn
in
humidity
%
barometer
mb
20260504044536 62 71 2.0 4.0 0.00 0.02 0.02 90 1011.9
20260504043102 62 70 2.0 5.0 0.00 0.02 0.02 90 1011.8
20260504041541 62 78 3.0 5.0 0.00 0.02 0.02 90 1011.8
20260504040059 62 80 3.0 9.0 0.00 0.02 0.02 90 1012.0
20260504034546 62 61 2.0 8.0 0.00 0.02 0.02 90 1011.9
20260504033037 62 71 3.0 6.0 0.00 0.02 0.02 90 1012.2
20260504031544 62 63 2.0 7.0 0.00 0.02 0.02 90 1012.2
20260504030055 62 59 3.0 6.0 0.00 0.02 0.02 90 1012.3
20260504024541 63 58 5.0 9.0 0.00 0.02 0.02 89 1012.3
20260504023041 63 74 3.0 6.0 0.00 0.02 0.02 89 1012.5
20260504021545 64 30 3.0 6.0 0.00 0.02 0.02 89 1012.4
20260504020038 64 57 3.0 5.0 0.01 0.02 0.02 89 1012.5
20260504014536 64 55 2.0 4.0 0.01 0.02 0.02 89 1012.5
20260504013050 65 0 0.0 3.0 0.00 0.01 0.01 89 1012.7
20260504011541 65 0 0.0 3.0 0.00 0.01 0.01 88 1012.8
20260504010050 65 0 0.0 0.0 0.00 0.00 0.00 88 1012.7
20260504004543 64 0 1.0 2.0 0.00 0.00 0.00 95 1012.8
20260504003035 64 0 0.0 0.0 0.00 0.00 0.00 95 1012.9
20260504001539 64 0 0.0 4.0 0.00 0.00 0.00 94 1013.0
20260504000040 64 46 2.0 4.0 0.00 0.00 0.00 94 1012.9
20260503234542 64 46 2.0 6.0 0.00 0.00 0.00 93 1013.0
20260503233038 64 60 4.0 6.0 0.00 0.00 0.00 92 1013.1
20260503231536 64 34 1.0 4.0 0.00 0.00 0.00 92 1013.2
20260503230050 64 60 4.0 6.0 0.00 0.00 0.00 92 1013.2
20260503224536 64 47 3.0 6.0 0.00 0.00 0.00 92 1013.3
20260503223051 64 44 2.0 5.0 0.00 0.00 0.00 91 1013.4
20260503221546 65 58 3.0 6.0 0.00 0.00 0.00 91 1013.4
20260503220039 65 64 2.0 4.0 0.00 0.00 0.00 90 1013.5
20260503214550 65 52 3.0 6.0 0.00 0.00 0.00 90 1013.7
20260503213046 65 72 4.0 7.0 0.00 0.00 0.00 90 1013.8
20260503211541 65 98 3.0 9.0 0.00 0.00 0.00 91 1013.6
20260503210039 65 69 3.0 8.0 0.00 0.00 0.00 91 1013.7
20260503204543 65 80 4.0 10.0 0.00 0.00 0.00 90 1013.7
20260503203037 65 115 4.0 8.0 0.00 0.00 0.00 90 1013.5
20260503201541 65 71 2.0 9.0 0.00 0.00 0.00 90 1013.4
20260503200036 64 132 5.0 9.0 0.00 0.00 0.00 90 1013.2
20260503194546 65 91 4.0 8.0 0.00 0.00 0.00 90 1012.8
20260503193039 64 122 4.0 8.0 0.00 0.00 0.00 90 1012.5
20260503191538 65 115 4.0 10.0 0.00 0.00 0.00 89 1012.3
20260503190043 65 49 4.0 10.0 0.00 0.00 0.00 89 1012.0
20260503184536 65 84 6.0 11.0 0.00 0.00 0.00 88 1012.0
20260503183040 65 74 6.0 12.0 0.00 0.00 0.00 87 1011.9
20260503181557 65 81 7.0 13.0 0.00 0.00 0.00 87 1011.8
20260503180048 65 63 8.0 12.0 0.00 0.00 0.00 86 1011.8
20260503174541 65 103 7.0 13.0 0.00 0.00 0.00 85 1011.8
20260503173040 66 58 5.0 12.0 0.00 0.00 0.00 86 1011.6
20260503171536 66 76 7.0 13.0 0.00 0.00 0.00 84 1011.4
20260503081542 64 151 5.0 10.0 0.00 0.00 0.00 87 1015.1